Tracking 17842 objects as of 1-September-2016
HD Live streaming from Space Station
objects crossing your sky now

CRRES DEB (CANISTER)

Track CRRES DEB (CANISTER) now!


NORAD ID: 27051
Int'l Code: 1990-065U
Perigee: 300.3 km
Apogee: 30,269.8 km
Inclination: 18.3 °
Period: 528.6 minutes
Semi major axis: 21656 km
RCS: 0.1304 m2 (medium)
Launch date: July 25, 1990
Source: United States (US)
Launch site: AIR FORCE EASTERN TEST RANGE (AFETR)

Note: This is SATELLITE DEBRIS
Your satellite tracking list
Your tracking list is empty





NASA's NSSDC Master Catalog

Two Line Element Set (TLE):
1 27051U 90065U   16242.98294066 +.00000926 +00000-0 +64628-3 0  9990
2 27051 018.2608 007.6581 6919435 320.8164 005.5013 02.72416693034089
Source of the keplerian elements: AFSPC

N2YO: 638